Regional Weather Roundup
Issued by NWS

Home | Current Version | Previous Version | Text Only | Print | Product List | Glossary Off
Versions: 1 2 3 4 5 6 7 8 9 10 11 12 13 14 15 16 17 18 19 20 21 22 23 24 25 26 27 28 29 30 31 32 33 34 35 36 37 38 39 40 41 42 43 44 45 46 47 48 49 50

000
ASUS44 KMEG 201510
RWRTN
TENNESSEE HOURLY STATE WEATHER ROUNDUP
NATIONAL WEATHER SERVICE MEMPHIS TN
1000 AM CDT MON OCT 20 2014

TNZ002-004-019-021-049-052-054-088>092-201600-
WEST TENNESSEE

CITY           SKY/WX    TMP DP  RH WIND       PRES   REMARKS
MEMPHIS INTL   MOSUNNY   64  50  60 SW6       30.11S
NWS MEMPHIS      N/A     59 N/A N/A MISG        N/A
JACKSON        PTSUNNY   60  51  72 SW7       30.10S
DYERSBURG      CLOUDY    55  43  62 CALM      30.11R
UNION CITY     MOSUNNY   54  48  82 S5        30.07S
PARIS          SUNNY     52  46  82 S5        30.08S
HUNTINGDON     PTSUNNY   51  48  89 CALM      30.10R
LEXINGTON      SUNNY     54  50  87 CALM      30.09F
SAVANNAH       SUNNY     57  55  94 CALM      30.11S
$$

TNZ008-025-027-028-033-062-065-066-201600-
NORTH MIDDLE TENNESSEE

CITY           SKY/WX    TMP DP  RH WIND       PRES   REMARKS
NASHVILLE      PTSUNNY   60  50  69 W5        30.10S
CLARKSVILLE    CLOUDY    55  49  80 S7        30.08F
SMYRNA         MOSUNNY   55  49  80 S6        30.10F
COOKEVILLE       N/A     59  52  77 CALM      30.10S
CROSSVILLE     MOSUNNY   59  46  62 VRB3      30.11F
$$

TNZ061-075-076-078-094-096-097-201600-
SOUTH MIDDLE TENNESSEE

CITY           SKY/WX    TMP DP  RH WIND       PRES   REMARKS
FAYETTEVILLE   SUNNY     57  48  72 SW17G41   30.10F
TULLAHOMA      SUNNY     59  50  72 VRB3      30.11S
WINCHESTER     SUNNY     61  50  67 CALM      30.11F
MCMINNVILLE    SUNNY     57  55  94 CALM      30.11S
COLUMBIA       SUNNY     57  57 100 CALM      30.08F
SHELBYVILLE    SUNNY     61  52  72 CALM      30.11S
$$

TNZ017-018-042-046-047-201600-
NORTHEAST TENNESSEE

CITY           SKY/WX    TMP DP  RH WIND       PRES   REMARKS
TRI CITIES     MOSUNNY   54  45  71 VRB3      30.12F
ELIZABETHTON   SUNNY     55  45  67 SW5       30.12F
$$

TNZ012-013-036-069-073-074-201600-
CENTRAL EAST TENNESSEE

CITY           SKY/WX    TMP DP  RH WIND       PRES   REMARKS
KNOXVILLE      MOSUNNY   56  49  77 VRB3      30.11F
OAK RIDGE      CLOUDY    55  48  77 CALM      30.13F
GATLINBURG     SUNNY     55  46  71 CALM      30.11F
MORRISTOWN     SUNNY     55  48  76 VRB5      30.12F
$$

TNZ083-085-099-201600-
SOUTHEAST TENNESSEE

CITY           SKY/WX    TMP DP  RH WIND       PRES   REMARKS
CHATTANOOGA    MOSUNNY   57  49  74 CALM      30.12F
$$

SKY/WX REPORTED AS FAIR MEANS FEW OR NO CLOUDS BELOW
12 THOUSAND FEET.



USA.gov is the U.S. government's official web portal to all federal, state and local government web resources and services.